Tracking 35030 objects as of 11-Aug-2026
HD Live streaming from Space Station
objects crossing your sky now

COSMOS 1227 DEB


COSMOS 1227 DEB is no longer on orbit


NORAD ID: 12127
Int'l Code: 1980-101C
Launch date: December 16, 1980
Source: Commonwealth of Independent States (former USSR) (CIS)
Launch site: PLESETSK MISSILE AND SPACE COMPLEX (PKMTR)
Decay date: 1981-01-15

Note: This is SATELLITE DEBRIS
Your satellite tracking list
Your tracking list is empty




NASA's NSSDC Master Catalog

Two Line Element Set (TLE):
1 12127U 80101  C 80364.15562468  .00506620 +16057-5 +58616-3 0  9993
2 12127 072.8371 241.4843 0053957 054.1608 306.4620 16.05580019002033
Source of the keplerian elements: AFSPC